User: anonymous   Login
Location: Melbourne
(37.8170°S, 144.9670°E)
Time: 18:17:10
(UTC+10:00)
Language:

Aureole 2 Rocket - Orbit

View from above orbital plane
View from above orbital plane
View from above satellite
View from above satellite

Ground track
Ground track

The orbit data is extracted from the following two-line orbital elements,

1 07004U 73107B   16122.82478951  .00025584  00000-0  45721-3 0  9991
2 07004  73.9393 230.4582 0210274 205.1992 153.8840 15.29084952174113
Epoch (UTC): 01 May 2016 19:47:41
Eccentricity: 0.0210274
inclination: 73.9393°
perigee height: 334 km
apogee height: 623 km
right ascension of ascending node: 230.4582°
argument of perigee: 205.1992°
revolutions per day: 15.29084952
mean anomaly at epoch: 153.8840°
orbit number at epoch: 17411

The dashed part of the orbit path shows where the satellite is in the earth's shadow,  

DLR